Content
SEND FEEDBACK

Daily
Averages
Monthly
Summary
United States of America

ZAP, NORTH DAKOTA


Home > North America > United States > North Dakota
Elevation: 1940 feet     Latitude: 47 16N     Longitude: 101 47W

WEATHER
 
SELECT A DAY
Number of Records: 83,655;   Date Range: 11/18/10 - 7/10/14
 
SHARE

PRINT THIS DATA

[ ← Previous Day ]
WEATHER ALMANAC - FEBRUARY 5, 2013
[ Next Day → ]
[ °C ]   °F
Weather ElementAverageHighLow
Temperature28.6 °F33.8 °F (1:35 am)19.4 °F (7:15 pm)
Dewpoint21.5 °F26.6 °F (12:35 am)15.8 °F (6:35 pm)
Humidity75 %93 % (10:15 am)64 % (12:35 pm)
Barometer29.87 in29.96 in (11:35 am)29.69 in (12:35 am)
Wind Speed11.3 mph20.7 mph (12:35 pm)
Wind Gust26.5 mph (12:35 pm)
Weather ElementAverage
Visibility10 mi
Wind DirectionWSW (233.6 °)

Weather ElementTotal
Precipitation---
Heating Degree Days38.4 (Base 65)
Averaged from 69 records on February 5, 2013
WEATHER CONDITIONS BREAKOUT
WIND DIRECTION BREAKOUT
WEATHER BY HOUR - FEBRUARY 5, 2013
[ °C ]   °F
Local TimeTemperatureDewpointHumidityBarometerVisibilityWind DirectionWind SpeedGust SpeedPrecipitationEventsConditions
12:35 AM32.0 °F26.6 °F80 %29.69 in10.0 miWest (270°)12.7 mphMostly Cloudy
12:55 AM32.0 °F26.6 °F80 %29.70 in10.0 miWNW (290°)13.8 mphOvercast
1:15 AM32.0 °F26.6 °F80 %29.70 in10.0 miWNW (290°)12.7 mph19.6 mphOvercast
1:35 AM33.8 °F26.6 °F75 %29.71 in10.0 miWNW (300°)17.3 mph20.7 mphOvercast
1:55 AM33.8 °F26.6 °F75 %29.72 in10.0 miNW (310°)16.1 mph20.7 mphMostly Cloudy
2:15 AM32.0 °F24.8 °F75 %29.73 in10.0 miWNW (290°)12.7 mphPartly Cloudy
2:35 AM32.0 °F24.8 °F75 %29.74 in10.0 miWNW (290°)11.5 mphPartly Cloudy
2:55 AM32.0 °F24.8 °F75 %29.75 in10.0 miWest (280°)13.8 mphMostly Cloudy
3:15 AM32.0 °F26.6 °F80 %29.76 in10.0 miWNW (290°)16.1 mph20.7 mphOvercast
3:35 AM32.0 °F26.6 °F80 %29.76 in10.0 miWNW (290°)17.3 mph23.0 mphOvercast
3:55 AM32.0 °F26.6 °F80 %29.77 in10.0 miWNW (290°)17.3 mph23.0 mphOvercast
4:15 AM32.0 °F26.6 °F80 %29.78 in10.0 miWNW (290°)16.1 mph21.9 mphOvercast
4:35 AM32.0 °F24.8 °F75 %29.79 in10.0 miWNW (300°)13.8 mph21.9 mphOvercast
4:55 AM32.0 °F24.8 °F75 %29.80 in10.0 miWNW (300°)13.8 mph18.4 mphOvercast
5:15 AM32.0 °F24.8 °F75 %29.81 in10.0 miWNW (290°)13.8 mph19.6 mphOvercast
5:35 AM32.0 °F24.8 °F75 %29.82 in10.0 miWNW (300°)13.8 mphOvercast
6:15 AM32.0 °F24.8 °F75 %29.83 in10.0 miWNW (300°)15.0 mphOvercast
6:35 AM32.0 °F24.8 °F75 %29.84 in10.0 miWNW (300°)13.8 mphOvercast
6:55 AM32.0 °F24.8 °F75 %29.85 in10.0 miNW (310°)12.7 mph18.4 mphOvercast
7:15 AM32.0 °F24.8 °F75 %29.86 in10.0 miWNW (300°)12.7 mphOvercast
7:35 AM32.0 °F24.8 °F75 %29.87 in10.0 miNW (310°)12.7 mph18.4 mphOvercast
8:15 AM30.2 °F26.6 °F86 %29.89 in10.0 miWNW (300°)10.4 mph16.1 mphOvercast
8:35 AM30.2 °F26.6 °F86 %29.90 in10.0 miWNW (300°)10.4 mphOvercast
8:55 AM30.2 °F26.6 °F86 %29.90 in10.0 miWNW (300°)9.2 mphMostly Cloudy
9:15 AM32.0 °F26.6 °F80 %29.91 in10.0 miWNW (300°)11.5 mphOvercast
9:35 AM32.0 °F26.6 °F80 %29.91 in10.0 miNW (310°)18.4 mphOvercast
9:55 AM28.4 °F24.8 °F86 %29.92 in10.0 miNorth (10°)9.2 mph23.0 mphOvercast
10:15 AM24.8 °F23.0 °F93 %29.93 in8.0 miENE (70°)6.9 mphOvercast
10:35 AM26.6 °F21.2 °F80 %29.94 in10.0 miNorth (10°)4.6 mphOvercast
10:55 AM26.6 °F21.2 °F80 %29.94 in10.0 miCalmOvercast
11:15 AM26.6 °F23.0 °F86 %29.95 in10.0 miNorth (350°)4.6 mphOvercast
11:35 AM28.4 °F21.2 °F74 %29.96 in10.0 miNNW (330°)8.1 mphOvercast
11:55 AM30.2 °F23.0 °F75 %29.96 in10.0 miNNW (340°)9.2 mphOvercast
12:15 PM30.2 °F23.0 °F75 %29.96 in10.0 miNW (320°)12.7 mphOvercast
12:35 PM30.2 °F19.4 °F64 %29.96 in10.0 miNW (320°)20.7 mph26.5 mphOvercast
12:55 PM30.2 °F19.4 °F64 %29.96 in10.0 miNW (320°)12.7 mph21.9 mphOvercast
1:15 PM30.2 °F19.4 °F64 %29.95 in10.0 miNorth (350°)13.8 mphMostly Cloudy
1:35 PM30.2 °F19.4 °F64 %29.95 in10.0 miNW (320°)10.4 mphMostly Cloudy
1:55 PM30.2 °F19.4 °F64 %29.95 in10.0 miNNW (330°)12.7 mphMostly Cloudy
2:15 PM30.2 °F19.4 °F64 %29.94 in10.0 miNNW (330°)15.0 mphPartly Cloudy
2:35 PM30.2 °F19.4 °F64 %29.94 in10.0 miNNW (330°)15.0 mph19.6 mphPartly Cloudy
2:55 PM30.2 °F19.4 °F64 %29.94 in10.0 miNNW (330°)10.4 mphMostly Cloudy
3:15 PM30.2 °F19.4 °F64 %29.94 in10.0 miNNW (330°)10.4 mphOvercast
3:35 PM30.2 °F19.4 °F64 %29.94 in10.0 miNNW (330°)8.1 mphOvercast
3:55 PM28.4 °F19.4 °F69 %29.94 in10.0 miNNW (340°)4.6 mphMostly Cloudy
4:15 PM28.4 °F19.4 °F69 %29.94 in10.0 miNorth (360°)3.5 mphScattered Clouds
4:35 PM28.4 °F17.6 °F64 %29.93 in10.0 miCalmMostly Cloudy
4:55 PM28.4 °F19.4 °F69 %29.92 in10.0 miCalmMostly Cloudy
5:15 PM26.6 °F19.4 °F74 %29.92 in10.0 miESE (120°)4.6 mphPartly Cloudy
5:35 PM26.6 °F17.6 °F69 %29.91 in10.0 miSE (140°)6.9 mphPartly Cloudy
5:55 PM24.8 °F17.6 °F74 %29.91 in10.0 miSE (140°)6.9 mphClear
6:15 PM23.0 °F17.6 °F80 %29.90 in10.0 miSE (140°)8.1 mphPartly Cloudy
6:35 PM21.2 °F15.8 °F80 %29.90 in10.0 miSE (130°)8.1 mphPartly Cloudy
6:55 PM23.0 °F15.8 °F74 %29.90 in10.0 miSE (140°)8.1 mphMostly Cloudy
7:15 PM19.4 °F15.8 °F86 %29.90 in10.0 miSSE (150°)9.2 mphMostly Cloudy
7:35 PM21.2 °F15.8 °F80 %29.89 in10.0 miSE (140°)6.9 mphOvercast
7:55 PM23.0 °F17.6 °F80 %29.88 in10.0 miSE (140°)9.2 mphOvercast
8:15 PM24.8 °F17.6 °F74 %29.87 in10.0 miSE (140°)9.2 mphOvercast
8:35 PM24.8 °F17.6 °F74 %29.88 in10.0 miSSE (150°)9.2 mphOvercast
8:55 PM24.8 °F17.6 °F74 %29.88 in10.0 miSSE (150°)11.5 mphOvercast
9:15 PM24.8 °F17.6 °F74 %29.87 in10.0 miSSE (150°)12.7 mphOvercast
9:35 PM24.8 °F17.6 °F74 %29.87 in10.0 miSSE (150°)16.1 mphOvercast
9:55 PM24.8 °F17.6 °F74 %29.86 in10.0 miSSE (150°)13.8 mphOvercast
10:15 PM24.8 °F17.6 °F74 %29.85 in10.0 miSSE (150°)13.8 mphOvercast
10:35 PM24.8 °F17.6 °F74 %29.84 in10.0 miSSE (150°)15.0 mphOvercast
10:55 PM24.8 °F17.6 °F74 %29.83 in10.0 miSSE (150°)18.4 mphOvercast
11:15 PM24.8 °F17.6 °F74 %29.83 in10.0 miSE (140°)16.1 mph23.0 mphOvercast
11:35 PM24.8 °F17.6 °F74 %29.83 in10.0 miSE (140°)9.2 mphOvercast
11:55 PM24.8 °F17.6 °F74 %29.83 in10.0 miSE (140°)12.7 mph20.7 mphOvercast
Hourly data recorded from KHZE, located miles away from Zap, North Dakota







STORIES FROM OUR PARTNERS